Location: Maccacari
(45.1333°N, 11.1333°E)
Time: 15:07:41
(UTC+00:00)

S-56A Canister/Altair - Pass Details

Date: 29 January 2021
Orbit: 631 x 2501 km, 38.9° (Epoch: 01 March)

Event Time Altitude Azimuth Distance (km) Brightness Sun altitude
Rises 02:24:15 0° 259° (W) 3,085 - -44.5°
Reaches altitude 10° 02:26:49 10° 251° (WSW) 2,067 - -44.1°
Maximum altitude 02:31:01 38° 183° (S) 960 - -43.4°
Drops below altitude 10° 02:35:15 10° 115° (ESE) 2,077 - -42.7°
Exits shadow 02:36:26 - 110° (ESE) 2,540 10.7 -42.5°
Sets 02:37:50 0° 107° (ESE) 3,103 11.2 -42.3°
